User: anonymous   Login
Location: Unspecified
(0.0000°N, 0.0000°E)
Time: 08:56:47
(UTC+00:00)
Language:

Tiangong 1 - Orbit

View from above orbital plane
View from above orbital plane
View from above satellite
View from above satellite

Ground track
Ground track

The orbit data is extracted from the following two-line orbital elements,

1 37820U 11053A   17204.81746188 +.00023468 +00000-0 +12036-3 0  9995
2 37820 042.7593 335.4042 0020240 336.3893 150.1552 15.80468679333761
Epoch (UTC): 23 July 2017 19:37:08
Eccentricity: 0.0020240
inclination: 42.7593°
perigee height: 315 km
apogee height: 342 km
right ascension of ascending node: 335.4042°
argument of perigee: 336.3893°
revolutions per day: 15.80468679
mean anomaly at epoch: 150.1552°
orbit number at epoch: 33376

The dashed part of the orbit path shows where the satellite is in the earth's shadow,  

DLR